Theta_e
312 311 308 309 311 311 309 309 308 313 317 318 318 318 321 325 323 322 322 323 323 324 328 327 327 327 327 325 324 323 323 326 327 327 326 326 325 327 327 327 326 326 326 325
310 308 310 310 310 309 311 309 310 313 317 317 316 314 317 323 325 326 324 324 325 327 328 327 327 328 328 327 326 323 323 323 326 326 325 326 327 327 327 327 327 327 326 326
307 309 310 309 309 310 311 310 310 310 314 316 312 312 313 319 325 328 329 329 330 330 330 331 328 329 329 326 325 324 322 323 323 325 326 326 327 327 326 326 325 327 327 326
309 311 309 309 308 312 309 312 312 311 311 306 311 303 312 317 320 321 326 329 331 332 334 334 334 330 328 326 325 324 324 323 321 322 324 325 323 321 325 325 326 327 327 327
308 309 309 308 308 312 310 315 314 312 311 309 310 306 311 316 315 318 321 323 325 327 326 327 329 330 328 327 327 329 330 323 321 322 325 325 325 324 325 325 325 329 329 327
309 311 310 310 314 315 316 313 311 311 309 303 306 307 308 312 314 318 322 323 324 324 327 328 330 330 327 329 329 329 331 329 326 325 326 327 327 326 324 324 323 324 325 325
308 309 310 312 312 315 314 311 304 301 302 300 307 308 310 317 317 319 320 322 324 325 327 326 326 327 328 328 329 332 334 328 327 326 326 327 327 327 326 325 323 324 324 325
304 301 308 311 314 312 311 310 304 296 297 300 306 304 309 316 319 321 322 324 324 325 328 327 327 328 329 330 332 334 332 330 329 327 327 327 327 325 325 326 325 324 325 324
304 303 309 315 315 315 311 310 311 305 303 302 305 308 314 317 319 320 321 323 323 326 327 327 327 329 330 331 332 333 333 331 331 328 328 328 328 327 327 329 328 325 327 325
310 303 307 311 316 316 313 313 307 307 298 296 302 304 306 312 317 319 320 321 323 326 328 328 329 329 330 332 334 335 333 330 332 330 328 328 328 328 328 329 328 328 328 328
310 309 306 310 310 310 311 311 308 308 307 300 299 303 314 314 319 318 320 321 322 323 327 329 329 330 331 333 334 333 334 330 329 330 329 328 326 328 328 328 328 328 328 328
310 311 304 306 311 312 312 311 311 306 303 306 304 306 315 319 319 319 320 321 322 323 324 329 330 330 331 332 332 331 333 333 332 330 330 328 328 329 328 328 329 329 328 329
315 310 305 306 310 311 310 311 310 310 310 306 303 305 316 320 319 320 320 322 321 322 325 326 329 330 330 331 332 331 332 333 333 332 329 328 329 329 329 329 330 330 328 328
320 310 308 302 305 309 308 309 310 311 307 306 307 308 314 316 319 320 321 322 322 324 326 327 327 329 331 333 331 331 332 332 333 329 328 328 329 328 328 329 329 328 328 326
318 311 309 308 308 310 310 309 309 309 310 306 308 308 314 318 319 320 321 322 320 322 325 327 327 327 330 331 332 332 332 330 330 327 326 327 326 326 326 327 327 327 327 326
316 311 311 308 310 311 308 310 311 310 310 310 311 312 319 321 321 321 320 320 320 322 325 326 327 329 329 330 330 329 328 329 328 326 324 324 326 327 327 327 326 326 327 328
316 315 311 306 309 308 304 309 312 313 315 314 310 315 321 320 320 321 320 320 320 322 325 327 327 329 330 331 331 329 329 328 327 326 326 326 326 325 325 325 327 327 326 326
317 316 313 308 309 298 308 317 316 314 316 318 318 319 320 321 323 322 322 322 323 324 327 327 328 329 330 330 329 328 326 326 327 326 324 325 326 327 327 325 324 324 324 324
319 317 309 307 305 306 309 313 313 311 312 320 318 320 321 320 322 322 325 324 324 328 328 328 329 329 328 327 326 326 326 326 327 328 328 326 325 322 321 321 321 322 322 319
316 316 312 307 302 299 309 316 319 317 309 319 321 322 322 321 314 319 325 327 329 329 329 328 328 328 327 326 327 328 328 328 325 322 319 319 320 320 319 320 320 321 319 317
311 311 309 306 306 309 314 318 320 307 311 322 324 325 323 320 323 326 327 327 329 330 328 328 327 326 328 330 330 329 326 323 321 318 317 317 319 318 318 319 320 318 317 316
309 309 310 309 306 302 319 320 313 320 325 325 326 325 324 324 324 327 327 327 329 328 326 325 324 326 327 329 328 325 322 319 317 316 316 316 317 316 317 318 317 317 317 316
309 314 311 313 312 322 322 325 327 328 326 326 327 327 325 323 323 325 327 329 328 328 325 324 324 323 324 325 325 322 319 316 315 315 314 314 315 316 317 317 316 313 315 312
314 317 315 315 317 319 322 325 327 327 327 329 328 327 327 324 325 326 328 327 327 326 324 324 322 320 318 319 319 320 316 314 314 314 314 315 316 315 316 315 314 312 311 309
317 318 316 316 319 320 322 323 324 325 327 326 327 327 326 328 328 327 325 326 327 325 324 322 320 317 313 313 316 317 314 314 314 314 314 315 316 316 314 313 313 312 313 308
318 320 315 312 320 321 322 325 326 324 324 325 325 325 328 327 326 325 325 327 325 323 323 320 318 316 311 311 313 314 315 314 314 314 313 314 314 314 314 313 312 298 299 296
Wind_Speed
2 3 5 6 6 6 5 6 5 3 3 6 11 18 19 11 13 16 15 15 17 18 15 7 9 10 10 8 4 4 4 3 3 2 2 2 4 3 4 4 4 4 3 3
1 2 3 6 2 4 4 3 2 1 2 7 6 14 11 4 7 12 15 17 18 19 15 9 10 12 12 11 7 3 4 2 4 2 0 2 2 2 3 3 4 5 5 5
1 4 4 3 3 1 1 3 3 2 2 2 11 3 3 1 6 7 11 15 16 17 18 15 16 15 14 11 6 7 7 3 4 3 2 2 2 3 3 4 4 5 6 6
1 3 5 8 4 2 3 6 2 1 3 4 7 6 1 5 10 5 8 8 10 13 15 17 15 14 16 13 11 13 14 8 6 6 4 5 4 4 3 4 3 4 5 6
0 4 8 6 5 1 2 3 4 3 3 2 6 5 6 5 6 11 8 8 6 9 12 16 14 11 16 20 17 14 13 6 8 7 7 5 5 3 3 3 4 4 5 5
2 2 2 2 4 2 8 2 4 2 0 2 3 4 3 5 6 9 8 8 10 11 12 9 6 16 18 17 14 10 10 9 8 8 7 7 6 4 4 4 4 4 3 4
1 2 3 2 2 4 1 2 2 3 3 5 2 4 6 7 5 7 10 11 12 12 13 7 8 11 14 18 14 12 10 9 10 9 7 8 6 5 6 5 4 5 5 4
2 4 2 1 2 1 2 1 2 4 5 8 1 4 4 3 7 5 6 6 12 14 13 8 3 8 11 15 15 11 7 8 10 9 9 7 7 5 5 4 4 5 5 4
5 4 1 4 1 2 5 2 3 5 1 4 2 4 8 3 5 4 6 10 13 13 13 9 3 5 8 10 14 9 7 8 10 9 8 8 7 8 6 6 5 6 5 5
5 4 0 2 1 8 1 6 2 1 4 7 3 5 6 4 8 8 5 9 10 10 11 9 4 2 5 7 9 6 7 7 7 9 9 8 8 8 8 7 7 8 7 7
5 3 3 2 4 1 3 3 5 1 2 5 5 6 3 5 7 7 4 7 8 9 8 6 4 2 5 6 8 7 5 4 6 8 9 9 7 7 8 8 8 8 8 8
2 3 3 1 2 2 1 2 2 3 2 1 4 5 3 4 3 3 4 5 5 5 4 4 3 4 5 7 8 9 8 6 4 5 8 8 8 8 9 8 9 7 9 9
7 1 2 4 4 3 2 3 3 4 1 5 4 5 1 3 5 4 5 6 5 4 5 4 1 2 3 5 6 7 9 7 6 4 6 6 7 7 9 9 9 8 8 10
5 3 1 0 2 1 2 0 2 1 3 2 5 10 7 3 4 1 3 4 6 8 9 8 6 1 2 2 4 5 6 6 6 5 5 6 4 4 5 7 7 7 7 10
2 3 0 2 2 1 4 4 3 5 4 5 4 6 10 6 3 1 2 2 3 10 10 11 9 5 4 5 5 5 4 5 5 6 5 1 4 3 4 5 5 6 7 7
2 3 1 0 3 2 5 4 3 5 3 9 9 11 4 2 1 4 4 1 7 5 8 11 9 6 5 6 5 5 5 5 5 2 3 3 4 4 5 5 6 6 5 6
2 4 3 2 2 2 4 4 3 2 3 3 6 5 7 3 2 2 0 3 4 5 6 8 6 5 5 5 4 6 6 6 4 3 4 5 5 5 5 5 5 5 6 7
4 4 1 2 1 4 3 2 4 6 5 4 8 6 5 5 5 5 4 5 5 1 6 6 5 4 5 5 6 6 6 5 3 5 6 6 6 5 5 5 6 6 6 7
2 3 3 3 3 4 3 1 3 2 4 7 5 7 7 3 6 3 7 5 4 3 4 6 6 6 7 7 5 6 5 5 5 6 7 7 6 5 5 6 6 6 6 7
5 5 1 3 2 3 3 1 2 2 4 4 7 10 7 4 6 5 9 6 5 3 3 7 9 8 8 6 5 6 6 6 7 6 6 5 5 5 6 5 6 5 6 6
2 2 1 2 2 3 1 1 1 4 4 8 5 8 6 4 4 11 10 8 4 4 6 6 8 9 8 6 5 7 6 7 4 4 5 5 5 5 5 5 5 5 5 5
1 1 1 1 2 2 3 2 4 3 4 6 5 3 3 5 11 10 12 9 8 8 9 8 8 10 8 6 5 7 6 5 3 4 5 6 5 4 4 6 6 6 5 5
2 2 2 5 2 2 3 6 2 6 6 5 5 5 6 8 12 13 11 10 5 11 10 7 7 10 7 5 4 5 5 3 4 5 5 5 4 4 4 5 5 5 5 5
3 3 3 3 1 5 6 7 6 5 9 9 9 7 7 11 13 13 9 5 7 8 8 7 8 10 7 5 5 5 5 4 4 6 5 3 2 3 4 4 4 4 5 5
1 6 3 6 9 9 1 2 2 5 8 8 7 8 7 9 8 7 5 2 6 9 9 7 6 8 7 5 4 4 4 4 5 5 4 1 2 2 4 3 3 4 4 4
6 5 4 6 1 3 6 4 6 10 9 6 4 5 4 4 2 1 2 5 7 6 9 7 6 8 6 4 5 5 4 4 5 4 3 1 2 2 2 3 4 4 3 3
Wind_Direction
48 241 339 336 242 281 254 258 279 268 358 250 259 275 291 289 234 239 235 236 241 243 253 246 200 180 165 151 185 169 195 241 240 224 255 268 258 243 237 235 230 244 258 280
218 261 356 300 258 195 197 259 332 211 47 221 295 285 304 303 283 261 243 238 244 252 250 236 206 187 181 165 177 153 222 227 250 249 323 301 319 292 294 254 234 241 246 253
310 314 341 355 89 32 182 295 198 291 131 103 318 266 332 299 298 285 248 249 254 263 272 253 223 193 174 162 134 47 299 234 199 244 196 214 197 223 239 237 246 234 240 248
238 308 345 355 29 336 16 336 260 92 311 353 350 342 340 341 321 289 287 275 282 279 277 273 266 210 175 146 142 171 216 208 190 192 206 229 259 269 273 267 251 261 257 250
37 303 345 332 355 241 26 118 85 53 58 284 8 281 24 333 342 345 3 40 3 351 345 319 311 180 168 167 179 210 193 164 172 185 209 225 238 253 269 252 262 268 271 261
282 300 254 293 59 55 144 80 59 83 262 6 341 312 337 333 325 315 348 23 19 17 359 8 77 148 170 180 187 196 188 194 175 181 199 220 233 245 257 258 271 273 301 265
283 273 281 216 184 124 76 15 346 348 355 354 340 257 290 305 308 307 333 5 25 30 13 51 131 163 177 185 191 208 190 175 198 183 203 216 224 234 254 260 276 292 281 268
202 202 223 166 257 126 93 229 345 333 348 344 171 279 360 309 317 311 315 18 36 29 22 36 125 176 187 194 196 197 177 190 203 193 207 216 220 224 239 241 274 275 269 284
176 248 293 1 132 288 140 201 78 114 134 277 352 270 269 319 331 334 344 24 35 27 24 45 103 194 194 203 207 187 188 202 206 203 212 215 214 224 241 242 242 261 261 272
191 239 154 157 157 63 303 124 185 133 298 317 310 277 315 337 339 351 335 14 30 38 39 43 42 221 217 211 202 197 206 230 221 214 220 224 220 227 243 245 242 255 265 265
143 210 168 221 211 236 159 176 68 75 306 295 304 324 201 273 319 319 329 13 10 29 36 51 73 198 221 209 180 191 170 222 213 216 227 233 238 239 244 250 252 256 269 271
155 144 198 238 49 309 39 78 181 308 258 234 306 278 168 260 318 302 341 345 12 28 41 72 99 176 208 220 198 197 199 212 226 226 236 239 247 250 253 258 262 264 268 278
177 58 160 158 158 132 79 117 110 97 96 207 273 329 180 271 261 236 315 350 356 11 40 60 180 202 238 232 221 211 223 229 243 259 251 241 247 256 264 267 272 279 293 294
95 104 87 335 62 329 288 97 129 141 240 158 248 312 320 303 252 21 294 320 346 35 30 36 53 117 165 188 204 211 220 219 229 242 238 242 256 280 288 287 290 299 301 293
61 97 293 217 124 197 291 278 179 212 246 249 338 271 309 343 26 17 317 284 41 36 29 26 36 78 107 133 153 199 205 197 200 211 227 33 23 349 311 298 313 309 306 312
18 128 184 129 124 298 273 249 262 228 237 253 274 283 3 327 208 241 253 337 53 58 36 42 45 83 114 130 144 161 154 169 180 179 48 19 351 344 330 322 320 328 351 5
40 141 147 246 6 302 259 242 247 237 236 276 290 5 335 308 255 252 275 57 36 38 62 56 53 94 103 130 129 114 123 121 89 41 16 355 351 0 4 353 4 24 27 27
140 119 190 240 266 258 53 0 263 259 268 248 280 287 299 286 306 300 296 359 49 148 98 95 94 106 82 80 88 100 94 80 52 40 30 29 27 29 28 33 34 44 43 52
10 141 120 253 233 323 150 116 312 326 303 217 264 279 281 267 269 116 24 360 25 65 81 117 120 114 107 99 119 114 105 88 71 55 49 42 34 35 35 47 43 47 71 72
77 66 296 149 248 274 72 123 332 231 286 209 234 289 320 292 265 29 6 8 21 85 125 140 127 125 112 125 156 122 92 79 65 58 54 37 33 44 63 55 57 69 77 73
22 18 40 139 255 279 252 226 292 246 5 344 294 311 329 287 331 309 305 268 282 196 163 149 138 122 116 122 128 92 88 77 68 65 58 56 60 71 62 70 76 79 72 61
4 358 89 137 256 276 156 192 239 25 326 325 309 293 288 296 307 331 324 284 262 192 155 164 142 115 106 115 119 109 94 89 76 66 78 74 56 47 67 89 88 72 51 39
212 280 334 229 300 345 210 271 307 310 294 287 267 232 243 283 296 305 304 305 265 171 159 154 141 119 104 101 102 116 104 115 104 96 90 72 59 63 85 96 89 73 50 23
207 174 245 269 106 258 273 272 270 265 261 267 257 251 269 280 292 299 310 288 175 151 134 143 146 120 112 95 98 111 125 131 125 114 86 61 71 106 102 106 93 68 39 19
48 153 212 251 274 283 228 220 298 297 297 285 264 257 273 301 299 304 334 128 149 146 141 160 162 124 116 117 127 134 148 159 140 121 108 84 136 149 133 94 78 79 68 16
186 195 209 269 229 254 290 338 299 311 331 337 279 280 292 290 282 298 104 135 154 162 147 157 138 124 119 142 149 145 165 182 162 154 151 140 160 182 178 169 152 165 129 143